weather.gov     
National Weather Service

Regional Weather Roundup
NWS Homepage
This page is being discontinued on March 12, 2014.
The same data is available at this site. Please update your bookmarks.
Thank you, and we apologize for the inconvenience.
Please send an email to SR-SRH.Webmaster@noaa.gov with any concerns.


Current Version
Previous Version:    01  02  03  04  05  06  07  08  09  10  11  12  13  14  15  16  17  18  19  20  21  22  23  24  25  26  27  28  29  30  
   31  32  33  34  35  36  37  38  39  40  41  42  43  44  45  46  47  48  49  50  51  52  53  54  55  56  57  58  59  60  
[Printable]
111
ASUS44 KFWD 281615
RWRTX
NORTH TEXAS HOURLY WEATHER ROUNDUP
NATIONAL WEATHER SERVICE FORT WORTH TX
1100 AM CDT MON JUL 28 2014

NOTE: "FAIR" INDICATES FEW OR NO CLOUDS BELOW 12,000 FEET WITH NO
SIGNIFICANT WEATHER AND/OR OBSTRUCTIONS TO VISIBILITY.

TXZ118-119-281700-
DALLAS/FORT WORTH METROPLEX

CITY           SKY/WX    TMP DP  RH WIND       PRES   REMARKS
DFW AIRPORT    PTSUNNY   89  69  51 N12       30.14S HX  93
DALLAS LOVE    PTSUNNY   90  73  57 NE8       30.13S HX  98
FTW MEACHAM    MOSUNNY   91  69  48 NE9       30.14S HX  96
DAL-EXECUTIVE  MOSUNNY   94  73  50 N6        30.13S HX 103
FTW-ALLIANCE   PTSUNNY   88  68  51 N15       30.15R HX  91
FTW-NAS-JRB    PTSUNNY   93  66  40 NE13      30.19R HX  96
FTW-SPINKS     PTSUNNY   91  68  46 NE10      30.16R HX  95
ARLINGTON      MOSUNNY   91  69  48 N12       30.14R HX  96
GRAND PRAIRIE  SUNNY     90  70  51 N12       30.15R HX  95
ADDISON        PTSUNNY   86  68  54 NE9       30.15S
MESQUITE       PTSUNNY   88  75  66 N10       30.13R HX  97
LANCASTER      MOSUNNY   91  71  50 NE7       30.13S HX  97
$$

TXZ091>094-102>105-117-120-121-131>134-281700-
NORTH CENTRAL TEXAS

CITY           SKY/WX    TMP DP  RH WIND       PRES   REMARKS
SHRMAN/DENISON PTSUNNY   85  64  48 NE9G16    30.19S
GAINESVILLE    CLOUDY    81  67  63 N10       30.21R
BOWIE          LGT RAIN  77  73  87 N6        30.21S
BRIDGEPORT     PTSUNNY   82  67  59 NE10      30.20S
DECATUR        CLOUDY    81  66  61 NE7       30.20R
DENTON         PTSUNNY   85  69  58 N12       30.16S
MCKINNEY       PTSUNNY   88  68  51 NE13      30.15R HX  91
GREENVILLE     MOSUNNY   86  70  58 NE10      30.14S HX  90
ROCKWALL       MOSUNNY   88  75  65 NE9       30.13S HX  97
TERRELL        MOSUNNY   94  73  50 N10       30.13R HX 103
WAXAHACHIE     MOSUNNY   91  68  46 N8        30.15R HX  95
CLEBURNE       PTSUNNY   90  73  58 N7G13     30.16S HX  98
GRANBURY       CLOUDY    91  69  48 N6        30.17R HX  95
$$

TXZ083>090-098>101-113>116-127>130-139>142-154-155-281700-
WESTERN NORTH TEXAS

CITY           SKY/WX    TMP DP  RH WIND       PRES   REMARKS
WICHITA FALLS  LGT RAIN  73  70  90 NE13      30.23R FOG
WF-KICKAPOO    TSTM      74  73  95 N8        30.25R
VERNON           N/A    N/A N/A N/A NE9       30.28R THUNDER
ABILENE        MOSUNNY   90  67  46 W9        30.20R HX  93
ABILENE-DYESS  MOSUNNY   89  66  47 VRB7      30.19R HX  91
BRECKENRIDGE   MOSUNNY   90  67  46 CALM      30.18R HAZE    HX  93
GRAHAM         PTSUNNY   85  67  53 NE14      30.17S
MINERAL WELLS  MOSUNNY   90  69  50 NE13      30.16R HX  94
STEPHENVILLE   MOSUNNY   88  68  51 NE9       30.20R HX  91
COMANCHE       SUNNY     92  64  39 CALM      30.17R HX  93
BROWNWOOD      SUNNY     90  64  43 SW8       30.17S HX  91
COLEMAN        SUNNY     89  62  39 SW3       30.19R
BRADY          SUNNY     88  64  45 CALM      30.18S
$$

TXZ143>147-156>162-174-175-281700-
CENTRAL TEXAS

CITY           SKY/WX    TMP DP  RH WIND       PRES   REMARKS
WACO           MOSUNNY   90  71  53 CALM      30.14R HX  96
WACO-TSTC      MOSUNNY   90  68  48 CALM      30.14R HX  93
WACO-MCGREGOR  SUNNY     91  66  43 W7        30.15R HX  94
HILLSBORO      SUNNY     91  69  48 NW7       30.15S HX  95
CORSICANA      MOSUNNY   87  71  58 W5        30.14S HX  93
MEXIA          SUNNY     87  72  62 SW3       30.14R HX  93
HEARNE         SUNNY    N/A N/A N/A S7        30.15S
CAMERON        SUNNY     87  73  63 S9        30.14S HX  94
TEMPLE         SUNNY     88  68  51 SW5       30.15S HX  91
KILLEEN        MOSUNNY   88  66  48 S9        30.15R HX  90
KILLEEN-SKYLRK SUNNY     90  68  48 SW7       30.14S HX  93
FORT HOOD      SUNNY     91  68  46 S8        30.15R HX  95
GATESVILLE     SUNNY     90  66  45 SW5       30.17R HX  92
HAMILTON       SUNNY     91  66  44 W6        30.17S HX  93
LAMPASAS       SUNNY     91  70  50 S5        30.16R HX  96
$$

TXZ095>097-106>112-122>126-135>138-148>153-164>167-281700-
EAST TEXAS

CITY           SKY/WX    TMP DP  RH WIND       PRES   REMARKS
PARIS          MOSUNNY   86  66  51 E15       30.16S
SULPHUR SPRNGS PTSUNNY   84  76  75 NE6       30.16R HX  93
CLARKSVILLE    MOSUNNY   87  67  51 E9        30.15S HX  90
MOUNT PLEASANT PTSUNNY   87  70  56 E8        30.15R HX  92
GILMER         MOSUNNY   86  75  70 CALM      30.14S HX  95
MINEOLA        PTSUNNY   88  75  66 NW5       30.14R HX  97
TYLER          CLOUDY    84  74  71 SW8       30.12F HX  91
LONGVIEW       MOSUNNY   86  73  65 CALM      30.12S HX  93
MARSHALL       MOSUNNY   89  80  76 W3        30.13S HX 106
ATHENS         MOSUNNY   86  72  62 W3        30.12S HX  92
JACKSONVILLE   MOSUNNY   86  71  60 W7        30.16F HX  91
HENDERSON      CLOUDY    83  72  67 W3        30.14S
NACOGDOCHES    MOSUNNY   88  73  62 NW7       30.14R HX  96
LUFKIN         SUNNY     89  71  55 W7        30.13S HX  95
$$

SUPPLEMENTAL OBSERVATIONS (CENTRAL)

CITY           SKY/WX    TMP DP  RH WIND       PRES   REMARKS
LAKE TEXOMA      N/A     81  64  57 NE9         N/A
CADDO GRASSLND   N/A     86  68  54 NE6         N/A
PAT MAYSE LAKE   N/A     84  68  58 N6          N/A
ATHENS           N/A     90  72  55 SW3         N/A  HX  96
PALESTINE        N/A     90  73  58 W1          N/A  HX  98
MCGREGOR         N/A     93  66  40 SW6         N/A  HX  96
TEMPLE           N/A     90  70  51 SW5G13      N/A  HX  95
$$

SUPPLEMENTAL OBSERVATIONS (WEST)

CITY           SKY/WX    TMP DP  RH WIND       PRES   REMARKS
MILLERS CREEK    N/A     82  68  61 E17         N/A
POSSUM KINGDOM   N/A     90  70  51 NE13        N/A  HX  95
GRANBURY         N/A     91  68  46 NE8         N/A  HX  95
HAMBY            N/A     91  64  40 W8          N/A  HX  93
IVIE RESERVOIR   N/A     90  64  43 NW3         N/A  HX  91
COLORADO BEND    N/A     91  63  38 SW3         N/A  HX  92
$$

SUPPLEMENTAL OBSERVATIONS (EAST)

CITY           SKY/WX    TMP DP  RH WIND       PRES   REMARKS
CLARKSVILLE      N/A     88  68  51 E8          N/A  HX  91
TEXARKANA        N/A     88  66  48 NE6         N/A  HX  90
LINDEN           N/A     88  66  48 E6G14       N/A  HX  90
CADDO LAKE       N/A     88  73  62 NE3         N/A  HX  96
GILMER           N/A     90  73  58 N1G9        N/A  HX  98
HENDERSON        N/A     84  72  65 W5          N/A
S SABINE NF      N/A     90  73  58 N3          N/A  HX  98
$$

SUPPLEMENTAL OBSERVATIONS ARE A COLLECTION OF AUTOMATED INSTRUMENTS
THAT ARE MAINTAINED BY A VARIETY OF FEDERAL AND STATE AGENCIES.
CERTAIN ELEMENTS...SUCH AS HUMIDITY VALUES AND SUSTAINED WIND
SPEEDS...MAY BE APPROXIMATED.





U.S. Dept. of Commerce
NOAA National Weather Service
1325 East West Highway
Silver Spring, MD 20910
E-mail: w-nws.webmaster@noaa.gov
Page last modified: May 16, 2007
NATIONAL WEATHER SERVICE: for Safety, for Work, for Fun - FOR LIFE